Weather in Korolevo

Ukraine / Zakarpattia District     48°09′11″N   23°08′11″E
temp.,
°C
wind,
m/s
gust,
m/s
humid.,
%
clouds,
%
prec.,
mm/h
press.,
hPa
HPBL,
m
16 may, sun
sun1600:00+10ene229151 0.0 101015
03:00+9ene229061 0.0 101017
06:00+8e229015 0.0 100916
09:00+14ese127521 0.0 1009245
12:00+17ssw2373100 0.8 1007585
15:00+13w3594100 4.6 1009457
18:00+14sw1289100 1.1 1008400
21:00+12s119284 2.4 100914
17 may, mon
mon1700:00+11sse1196100 0.6 100920
03:00+10ese119692 0.7 100911
06:00+10e2195100 0.1 100833
09:00+12ese119195 0.1 100898
12:00+17ssw236435 0.0 10061168
15:00+19ssw235882 0.1 10041474
18:00+18wsw1274100 0.1 1002288
21:00+12wsw2497100 1.3 1004208
18 may, tue
tue1800:00+11e1198100 3.1 100326
03:00+11se1297100 6.4 100261
06:00+10sse1299100 6.5 1003150
09:00+10wnw2397100 11.4 1005201
12:00+10w2596100 5.6 1008440
15:00+12nw3888100 7.5 1009951
18:00+13wnw2576100 0.1 1010775
21:00+10sw1189100 0.1 101110
19 may, wed
wed1900:00+9se0193100 0.0 101210
03:00+7ese119599 0.0 101210
06:00+6s119832 0.0 101313
09:00+10sse118872 0.0 1014386
12:00+14wsw127049 0.1 10131020
15:00+17sw226210 0.6 10121283
18:00+15sw237653 1.4 1011826
21:00+11sw1192100 3.9 101111
20 may, thu
thu2000:00+11sw1194100 0.8 101121
03:00+10s1198100 1.9 101153
06:00+9s1198100 0.1 101139
09:00+10s1196100 0.4 1011190
12:00+11nnw249187 0.3 1011384
15:00+15nnw4563100 0.3 10101238
18:00+13n4668100 0.0 10111126
21:00+10nnw3377100 0.0 101363